Weather History for KMLF - February, 2014

Change the Weather History Date:

Friday, February 28, 2014

  Actual Average Record
Temperature  
Mean Temperature 43 °F -  
Max Temperature 54 °F 44 °F 69 °F (1999)
Min Temperature 32 °F 21 °F 10 °F (1997)
Degree Days  
Heating Degree Days 22    
Moisture  
Dew Point 34 °F    
Average Humidity 71    
Maximum Humidity 93    
Minimum Humidity 43    
Precipitation  
Precipitation 0.12 in - - ()
Sea Level Pressure  
Sea Level Pressure 29.71 in    
Wind  
Wind Speed 15 mph (SSW)    
Max Wind Speed 36 mph    
Max Gust Speed 55 mph    
Visibility 9 miles    
Events Rain    
Averages and records for this station are not official NWS values.
T = Trace of Precipitation, MM = Missing Value Source: NWS Daily Summary

Daily Weather History Graph

Daily Weather History Graph

Search for Another Location

Airport or City:

Trip Planner

Search our weather history database for the weather conditions in past years. The results will help you decide how hot, cold, wet, or windy it might be!

Date:

Astronomy

Feb. 28, 2014 Rise Set
Actual Time 7:05 AM MST 6:24 PM MST
Civil Twilight 6:38 AM MST 6:50 PM MST
Nautical Twilight 6:08 AM MST 7:21 PM MST
Astronomical Twilight 5:37 AM MST 7:52 PM MST
Moon 6:22 AM MST (2/28) 6:05 PM MST (2/28)
Length of Visible Light 12h 12m
Length of Day
11h 18m
Waning Crescent, 0% of the Moon is Illuminated
Feb 28
Waning Crescent
Mar 1
New
Mar 8
First Quarter
Mar 16
Full
Mar 23
Last Quarter

Hourly Weather History & Observations

Time (MST) Temp. Windchill Dew Point Humidity Pressure Visibility Wind Dir Wind Speed Gust Speed Precip Events Conditions
12:52 AM 34.0 °F 28.8 °F 28.0 °F 79% 29.84 in 10.0 mi SSW 5.8 mph - N/A   Clear
1:52 AM 35.1 °F 26.9 °F 28.9 °F 78% 29.83 in 10.0 mi SSW 11.5 mph - N/A   Clear
2:52 AM 32.0 °F 21.6 °F 28.0 °F 85% 29.85 in 10.0 mi SW 15.0 mph - N/A   Clear
3:52 AM 33.1 °F 23.4 °F 28.0 °F 82% 29.81 in 10.0 mi SW 13.8 mph - N/A   Clear
4:52 AM 33.1 °F 23.9 °F 28.0 °F 82% 29.81 in 10.0 mi SW 12.7 mph - N/A   Clear
5:52 AM 33.1 °F 26.1 °F 28.9 °F 85% 29.79 in 10.0 mi SSW 8.1 mph - N/A   Clear
6:52 AM 37.0 °F 29.8 °F 28.9 °F 73% 29.78 in 10.0 mi SW 10.4 mph - N/A   Clear
7:52 AM 36.0 °F 28.0 °F 28.9 °F 76% 29.83 in 10.0 mi SSW 11.5 mph - N/A   Partly Cloudy
8:52 AM 36.0 °F 29.6 °F 30.0 °F 79% 29.81 in 10.0 mi South 8.1 mph - N/A   Overcast
9:52 AM 42.1 °F 34.5 °F 30.0 °F 62% 29.79 in 10.0 mi SW 15.0 mph - N/A   Overcast
10:52 AM 42.1 °F 33.1 °F 28.9 °F 60% 29.82 in 10.0 mi SSW 20.7 mph 26.5 mph N/A   Overcast
11:52 AM 44.1 °F 36.5 °F 33.1 °F 65% 29.79 in 10.0 mi SSW 17.3 mph - N/A   Mostly Cloudy
12:52 PM 50.0 °F - 35.1 °F 57% 29.72 in 10.0 mi SSW 20.7 mph 31.1 mph N/A   Partly Cloudy
1:52 PM 51.1 °F - 35.1 °F 54% 29.68 in 10.0 mi SSW 19.6 mph - N/A   Mostly Cloudy
2:52 PM 51.1 °F - 36.0 °F 56% 29.70 in 10.0 mi SSW 18.4 mph 28.8 mph N/A   Overcast
3:52 PM 50.0 °F - 37.0 °F 61% 29.66 in 10.0 mi South 21.9 mph 31.1 mph 0.00 in   Overcast
4:52 PM 51.1 °F - 37.9 °F 61% 29.59 in 10.0 mi South 27.6 mph 34.5 mph N/A   Partly Cloudy
5:52 PM 52.0 °F - 39.0 °F 61% 29.57 in 10.0 mi South 24.2 mph 29.9 mph N/A   Mostly Cloudy
6:52 PM 48.9 °F - 41.0 °F 74% 29.59 in 10.0 mi South 21.9 mph 31.1 mph 0.01 in Rain Light Rain
7:52 PM 46.9 °F - 42.1 °F 83% 29.57 in 7.0 mi South 16.1 mph - 0.03 in Rain Rain
8:52 PM 46.0 °F 38.3 °F 43.0 °F 89% 29.58 in 7.0 mi SSW 20.7 mph 27.6 mph 0.06 in Rain Light Rain
9:52 PM 46.0 °F 39.6 °F 43.0 °F 89% 29.53 in 10.0 mi SSW 15.0 mph - 0.00 in   Overcast
10:52 PM 46.0 °F 38.0 °F 39.0 °F 76% 29.50 in 10.0 mi South 21.9 mph 29.9 mph N/A   Clear
11:52 PM 44.1 °F 33.2 °F 41.0 °F 89% 29.58 in 2.5 mi SW 35.7 mph 55.2 mph 0.05 in Rain Rain
11:57 PM 44.1 °F 34.6 °F 42.1 °F 93% 29.62 in 7.0 mi SSW 26.5 mph 50.6 mph 0.00 in Rain Light Rain